Location: Saint Peter Port
(49.4500°N, 2.5330°W)
Time: 19:39:29
(UTC+01:00)

ISS - Visible Passes

Search period start: 21 October 2019 00:00
Search period end: 30 October 2019 23:00
Orbit: 411 x 421 km, 51.6° (Epoch: 21 October)

Date Brightness Start Highest point End Pass type
(mag) Time Alt. Az. Time Alt. Az. Time Alt. Az.
25 Oct -1.1 06:35:23 10° S 06:37:50 19° SE 06:40:16 10° E visible
26 Oct -0.8 05:47:58 10° SSE 05:49:26 12° SE 05:50:54 10° ESE visible
27 Oct -2.5 05:33:53 10° SW 05:37:03 38° SSE 05:40:12 10° E visible
28 Oct -1.9 04:47:32 22° S 04:48:32 26° SE 04:51:24 10° E visible
29 Oct -0.8 04:01:14 15° ESE 04:01:14 15° ESE 04:02:24 10° E visible
29 Oct -3.6 05:34:09 20° WSW 05:36:23 74° SSE 05:39:45 10° ENE visible
30 Oct -3.2 04:47:44 52° SSE 04:47:46 52° SSE 04:51:04 10° ENE visible
30 Oct -3.6 06:21:10 10° W 06:24:31 61° N 06:27:51 10° ENE visible
